Weather History for Rawlins, WY

Change the Weather History Date:

Wednesday, September 19, 2012

  Actual Average Record
Temperature  
Mean Temperature 62 °F 54 °F  
Max Temperature 75 °F 69 °F 86 °F (2010)
Min Temperature 49 °F 39 °F 24 °F (1965)
Degree Days  
Heating Degree Days 3 11  
Month to date heating degree days 103 143  
Since 1 July heating degree days 114 236  
Cooling Degree Days 0 0  
Month to date cooling degree days 6 2  
Year to date cooling degree days 419 183  
Growing Degree Days 12 (Base 50)    
Moisture  
Dew Point 20 °F    
Average Humidity 22    
Maximum Humidity 30    
Minimum Humidity 13    
Precipitation  
Precipitation 0.00 in 0.03 in 0.36 in (1997)
Month to date precipitation 0.23 0.59  
Year to date precipitation 3.72 7.14  
Sea Level Pressure  
Sea Level Pressure 30.05 in    
Wind  
Wind Speed 7 mph (WSW)    
Max Wind Speed 17 mph    
Max Gust Speed 24 mph    
Visibility 10 miles    
Events      
T = Trace of Precipitation, MM = Missing Value Source: NWS Daily Summary

Daily Weather History Graph

Daily Weather History Graph

Search for Another Location

Airport:

Trip Planner

Search our weather history database for the weather conditions in past years. The results will help you decide how hot, cold, wet, or windy it might be!

Date:

Astronomy

Sep. 19, 2012 Rise Set
Actual Time 6:53 AM MDT 7:10 PM MDT
Civil Twilight 6:25 AM MDT 7:38 PM MDT
Nautical Twilight 5:53 AM MDT 8:10 PM MDT
Astronomical Twilight 5:19 AM MDT 8:44 PM MDT
Moon 11:11 AM MDT (9/19) 9:17 PM MDT (9/19)
Length of Visible Light 13h 12m
Length of Day
12h 16m
Waxing Crescent, 17% of the Moon is Illuminated
Sep 19
Waxing Crescent
Sep 22
First Quarter
Sep 29
Full
Oct 8
Last Quarter
Oct 15
New

Hourly Weather History & Observations

Time (MDT) Temp. Dew Point Humidity Pressure Visibility Wind Dir Wind Speed Gust Speed Precip Events Conditions
12:21 AM 55.4 °F 19.4 °F 25% 30.22 in 9.0 mi South 17.3 mph 27.6 mph N/A   Clear
12:53 AM 55.0 °F 19.0 °F 24% 29.99 in 10.0 mi North - - N/A   Clear
1:53 AM 55.0 °F 19.9 °F 25% 29.98 in 10.0 mi North - - N/A   Clear
2:53 AM 53.1 °F 19.9 °F 27% 29.99 in 10.0 mi SW 8.1 mph 31.1 mph N/A   Clear
3:03 AM 51.8 °F 19.4 °F 28% 30.24 in 10.0 mi West 15.0 mph 49.5 mph N/A   Squalls
3:53 AM 52.0 °F 21.0 °F 30% 29.99 in 10.0 mi North - - N/A   Clear
4:53 AM 52.0 °F 21.0 °F 30% 30.00 in 10.0 mi North - - N/A   Clear
5:53 AM 52.0 °F 21.0 °F 30% 30.03 in 10.0 mi North - - N/A   Clear
6:53 AM 50.0 °F 19.9 °F 31% 30.06 in 10.0 mi WSW 13.8 mph - N/A   Clear
7:53 AM 52.0 °F 19.9 °F 28% 30.09 in 10.0 mi West 10.4 mph - N/A   Clear
8:53 AM 55.9 °F 21.0 °F 26% 30.10 in 10.0 mi WSW 10.4 mph - N/A   Clear
9:53 AM 61.0 °F 19.9 °F 21% 30.09 in 10.0 mi WSW 11.5 mph - N/A   Clear
10:53 AM 63.0 °F 19.9 °F 19% 30.10 in 10.0 mi Calm Calm - N/A   Clear
11:53 AM 66.9 °F 21.0 °F 17% 30.07 in 10.0 mi West 3.5 mph - N/A   Clear
12:53 PM 71.1 °F 21.9 °F 16% 30.06 in 10.0 mi West 4.6 mph - N/A   Clear
1:53 PM 73.0 °F 21.9 °F 15% 30.03 in 10.0 mi WSW 11.5 mph 16.1 mph N/A   Clear
2:53 PM 75.0 °F 21.9 °F 14% 30.01 in 10.0 mi West 12.7 mph 24.2 mph N/A   Clear
3:53 PM 75.0 °F 21.0 °F 13% 30.00 in 10.0 mi WNW 9.2 mph - N/A   Clear
4:53 PM 73.0 °F 21.0 °F 14% 29.99 in 9.0 mi West 10.4 mph 20.7 mph N/A   Clear
5:53 PM 72.0 °F 19.9 °F 14% 30.00 in 9.0 mi WSW 11.5 mph - N/A   Clear
6:53 PM 70.0 °F 19.9 °F 15% 30.01 in 9.0 mi West 5.8 mph - N/A   Clear
7:53 PM 62.1 °F 19.9 °F 20% 30.05 in 10.0 mi West 6.9 mph - N/A   Clear
8:53 PM 59.0 °F 19.0 °F 21% 30.05 in 10.0 mi Calm Calm - N/A   Clear
9:53 PM 53.1 °F 19.0 °F 26% 30.06 in 10.0 mi Calm Calm - N/A   Clear
10:53 PM 55.9 °F 19.0 °F 24% 30.02 in 9.0 mi Calm Calm - N/A   Clear
11:53 PM 55.0 °F 19.0 °F 24% 30.02 in 10.0 mi SW 3.5 mph - N/A   Clear